• In Russia
  • List of Countries
  • For 7 days
  • Water Temperature
  • Satellite Maps
  • Weather Map
  • Weather Widgets
  • user-avatar
    Login

    Hourly Weather Tadzhura

    Today, 24 June, Monday

    Time Temperature Precipitation Wind Pressure Humidity
    00:00 +37°C° 0 mm 2 mps 751 mmHg 48%
    01:00 +36°C° 0 mm 1 mps 750 mmHg 51%
    02:00 +35°C° 0 mm 1 mps 750 mmHg 54%
    03:00 +34°C° 0 mm 1 mps 750 mmHg 58%
    04:00 +34°C° 0 mm 1 mps 750 mmHg 58%
    05:00 +32°C° 0 mm 0 mps 751 mmHg 59%
    06:00 +32°C° 0 mm 0 mps 751 mmHg 59%
    07:00 +33°C° 0 mm 0 mps 751 mmHg 53%
    08:00 +36°C° 0 mm 1 mps 751 mmHg 47%
    09:00 +39°C° 0 mm 1 mps 751 mmHg 40%
    10:00 +40°C° 0 mm 2 mps 751 mmHg 37%
    11:00 +42°C° 0 mm 3 mps 751 mmHg 34%
    12:00 +43°C° 0 mm 4 mps 751 mmHg 30%
    13:00 +42°C° 0 mm 4 mps 750 mmHg 33%
    14:00 +42°C° 0 mm 5 mps 749 mmHg 36%
    15:00 +43°C° 0 mm 5 mps 748 mmHg 39%
    16:00 +42°C° 0 mm 4 mps 748 mmHg 40%
    17:00 +40°C° 0 mm 3 mps 748 mmHg 40%
    18:00 +39°C° 0 mm 2 mps 749 mmHg 41%
    19:00 +38°C° 0 mm 3 mps 749 mmHg 46%
    20:00 +37°C° 0 mm 4 mps 750 mmHg 51%
    21:00 +36°C° 0 mm 5 mps 750 mmHg 55%
    22:00 +36°C° 0 mm 4 mps 750 mmHg 56%
    23:00 +36°C° 0 mm 3 mps 751 mmHg 56%

    Tomorrow, 25 June, Tuesday

    Time Temperature Precipitation Wind Pressure Humidity
    00:00 +36°C° 0 mm 2 mps 751 mmHg 57%
    01:00 +35°C° 0 mm 2 mps 751 mmHg 62%
    02:00 +34°C° 0 mm 2 mps 750 mmHg 67%
    03:00 +34°C° 0 mm 2 mps 750 mmHg 72%
    04:00 +34°C° 0 mm 2 mps 751 mmHg 68%
    05:00 +33°C° 0 mm 1 mps 751 mmHg 64%
    06:00 +33°C° 0 mm 1 mps 752 mmHg 61%
    07:00 +34°C° 0 mm 1 mps 752 mmHg 54%
    08:00 +36°C° 0 mm 1 mps 752 mmHg 47%
    09:00 +37°C° 0 mm 1 mps 752 mmHg 40%
    10:00 +39°C° 0 mm 2 mps 752 mmHg 38%
    11:00 +39°C° 0 mm 2 mps 752 mmHg 36%
    12:00 +40°C° 0 mm 3 mps 751 mmHg 34%
    13:00 +42°C° 0 mm 3 mps 751 mmHg 32%
    14:00 +42°C° 0 mm 3 mps 750 mmHg 30%
    15:00 +43°C° 0 mm 3 mps 749 mmHg 28%
    16:00 +42°C° 0 mm 3 mps 749 mmHg 31%
    17:00 +40°C° 0 mm 3 mps 749 mmHg 34%
    18:00 +39°C° 0 mm 3 mps 749 mmHg 37%
    19:00 +39°C° 0 mm 2 mps 750 mmHg 37%
    20:00 +39°C° 0 mm 2 mps 750 mmHg 36%
    21:00 +39°C° 0 mm 1 mps 751 mmHg 36%
    22:00 +37°C° 0 mm 1 mps 751 mmHg 39%
    23:00 +36°C° 0 mm 1 mps 751 mmHg 43%

    Day after tomorrow, 26 June, Wednesday

    Time Temperature Precipitation Wind Pressure Humidity
    00:00 +35°C° 0 mm 1 mps 751 mmHg 46%
    01:00 +35°C° 0 mm 1 mps 751 mmHg 47%
    02:00 +35°C° 0 mm 1 mps 751 mmHg 47%
    03:00 +32°C° 0 mm 0 mps 750 mmHg 48%
    04:00 +34°C° 0 mm 1 mps 751 mmHg 46%
    05:00 +34°C° 0 mm 1 mps 751 mmHg 44%
    06:00 +34°C° 0 mm 1 mps 751 mmHg 42%
    07:00 +36°C° 0 mm 1 mps 752 mmHg 39%
    08:00 +37°C° 0 mm 1 mps 752 mmHg 36%
    09:00 +40°C° 0 mm 1 mps 752 mmHg 34%
    10:00 +41°C° 0 mm 1 mps 752 mmHg 31%
    11:00 +42°C° 0 mm 2 mps 752 mmHg 28%
    12:00 +43°C° 0 mm 2 mps 751 mmHg 25%
    13:00 +45°C° 0 mm 2 mps 750 mmHg 24%
    14:00 +45°C° 0 mm 2 mps 749 mmHg 23%
    15:00 +46°C° 0 mm 2 mps 748 mmHg 21%
    16:00 +43°C° 0 mm 2 mps 748 mmHg 26%
    17:00 +43°C° 0 mm 3 mps 748 mmHg 30%
    18:00 +42°C° 0 mm 4 mps 748 mmHg 35%
    19:00 +41°C° 0 mm 4 mps 748 mmHg 33%
    20:00 +40°C° 0 mm 3 mps 749 mmHg 31%
    21:00 +40°C° 0 mm 3 mps 749 mmHg 29%
    22:00 +40°C° 0 mm 3 mps 749 mmHg 29%
    23:00 +40°C° 0 mm 3 mps 749 mmHg 29%

    27 June, Thursday

    Time Temperature Precipitation Wind Pressure Humidity
    00:00 +39°C° 0 mm 2 mps 749 mmHg 28%
    01:00 +39°C° 0 mm 2 mps 749 mmHg 28%
    02:00 +39°C° 0 mm 2 mps 749 mmHg 28%
    03:00 +39°C° 0 mm 2 mps 748 mmHg 27%
    04:00 +39°C° 0 mm 3 mps 748 mmHg 26%
    05:00 +40°C° 0 mm 4 mps 748 mmHg 25%
    06:00 +40°C° 0 mm 4 mps 748 mmHg 23%
    07:00 +41°C° 0 mm 4 mps 749 mmHg 22%
    08:00 +43°C° 0 mm 4 mps 749 mmHg 21%
    09:00 +44°C° 0 mm 4 mps 750 mmHg 19%
    10:00 +45°C° 0 mm 4 mps 749 mmHg 18%
    11:00 +47°C° 0 mm 4 mps 749 mmHg 17%
    12:00 +48°C° 0 mm 4 mps 748 mmHg 16%
    13:00 +49°C° 0 mm 4 mps 747 mmHg 16%
    14:00 +49°C° 0 mm 4 mps 747 mmHg 15%
    15:00 +50°C° 0 mm 4 mps 746 mmHg 15%
    16:00 +48°C° 0 mm 5 mps 746 mmHg 17%
    17:00 +47°C° 0 mm 5 mps 746 mmHg 20%
    18:00 +46°C° 0 mm 5 mps 746 mmHg 22%
    19:00 +45°C° 0 mm 5 mps 746 mmHg 23%
    20:00 +42°C° 0 mm 6 mps 747 mmHg 24%
    21:00 +41°C° 0 mm 6 mps 747 mmHg 25%
    22:00 +41°C° 0 mm 6 mps 747 mmHg 23%
    23:00 +41°C° 0 mm 5 mps 747 mmHg 22%

    28 June, Friday

    Time Temperature Precipitation Wind Pressure Humidity
    00:00 +41°C° 0 mm 4 mps 747 mmHg 21%
    01:00 +40°C° 0 mm 3 mps 747 mmHg 23%
    02:00 +39°C° 0 mm 2 mps 747 mmHg 25%
    03:00 +37°C° 0 mm 1 mps 747 mmHg 27%
    04:00 +38°C° 0 mm 2 mps 747 mmHg 28%
    05:00 +37°C° 0 mm 2 mps 748 mmHg 29%
    06:00 +37°C° 0 mm 3 mps 748 mmHg 30%
    07:00 +38°C° 0 mm 2 mps 748 mmHg 30%
    08:00 +39°C° 0 mm 2 mps 749 mmHg 30%
    09:00 +40°C° 0 mm 2 mps 749 mmHg 30%
    10:00 +42°C° 0 mm 3 mps 749 mmHg 27%
    11:00 +44°C° 0 mm 3 mps 748 mmHg 25%
    12:00 +45°C° 0 mm 4 mps 748 mmHg 23%
    13:00 +44°C° 0 mm 4 mps 747 mmHg 24%
    14:00 +45°C° 0 mm 5 mps 746 mmHg 26%
    15:00 +45°C° 0 mm 6 mps 746 mmHg 27%
    16:00 +43°C° 0 mm 5 mps 746 mmHg 30%
    17:00 +42°C° 0 mm 5 mps 746 mmHg 33%
    18:00 +41°C° 0 mm 5 mps 746 mmHg 35%
    19:00 +40°C° 0 mm 4 mps 747 mmHg 36%
    20:00 +40°C° 0 mm 4 mps 748 mmHg 36%
    21:00 +38°C° 0 mm 4 mps 748 mmHg 37%
    22:00 +37°C° 0 mm 3 mps 749 mmHg 45%
    23:00 +36°C° 0 mm 2 mps 749 mmHg 54%

    29 June, Saturday

    Time Temperature Precipitation Wind Pressure Humidity
    00:00 +34°C° 0 mm 1 mps 749 mmHg 62%
    01:00 +34°C° 0 mm 1 mps 749 mmHg 56%
    02:00 +36°C° 0 mm 2 mps 748 mmHg 51%
    03:00 +36°C° 0 mm 2 mps 748 mmHg 45%
    04:00 +36°C° 0 mm 2 mps 748 mmHg 45%
    05:00 +36°C° 0 mm 2 mps 749 mmHg 45%
    06:00 +36°C° 0 mm 2 mps 749 mmHg 45%
    07:00 +37°C° 0 mm 2 mps 749 mmHg 42%
    08:00 +38°C° 0 mm 3 mps 750 mmHg 39%
    09:00 +40°C° 0 mm 3 mps 750 mmHg 35%
    10:00 +42°C° 0 mm 3 mps 750 mmHg 32%
    11:00 +43°C° 0 mm 3 mps 749 mmHg 29%
    12:00 +45°C° 0 mm 3 mps 749 mmHg 26%
    13:00 +45°C° 0 mm 4 mps 748 mmHg 27%
    14:00 +45°C° 0 mm 4 mps 747 mmHg 28%
    15:00 +45°C° 0 mm 4 mps 747 mmHg 29%
    16:00 +45°C° 0 mm 5 mps 747 mmHg 31%
    17:00 +43°C° 0 mm 5 mps 747 mmHg 32%
    18:00 +42°C° 0 mm 5 mps 747 mmHg 34%
    19:00 +41°C° 0 mm 5 mps 748 mmHg 35%
    20:00 +40°C° 0 mm 6 mps 749 mmHg 35%
    21:00 +40°C° 0 mm 6 mps 749 mmHg 36%
    22:00 +39°C° 0 mm 5 mps 749 mmHg 38%
    23:00 +38°C° 0 mm 4 mps 750 mmHg 39%
    Show more